Location: The Saddle
(36.8333°N, 80.3417°W)
Time: 07:03:50
(UTC-04:00)

Courier 1B - Pass Details

Date: 27 September 2024
Orbit: 962 x 1208 km, 28.3° (Epoch: 05 October)

Event Time Altitude Azimuth Distance (km) Brightness Sun altitude
Rises 13:08:23 0° 259° (W) 3,643 10.6 51.1°
Reaches altitude 10° 13:11:10 10° 252° (WSW) 2,711 10.1 51.1°
Maximum altitude 13:17:09 39° 186° (S) 1,459 10.6 51.1°
Drops below altitude 10° 13:23:25 10° 120° (ESE) 2,832 10.3 51.1°
Sets 13:26:23 0° 112° (ESE) 3,825 10.7 51.0°
